Location: Unspecified
(39.0670°S, 0.0000°E)
Time: 03:19:09
(UTC+00:00)

OTV 5 (USA 277) - Visible Passes

Search period start: 17 June 2019 00:00
Search period end: 27 June 2019 00:00
Orbit: 310 x 325 km, 54.5° (Epoch: 08 May)

Date Brightness Start Highest point End Pass type
(mag) Time Alt. Az. Time Alt. Az. Time Alt. Az.
17 Jun ? 17:31:32 10° SSW 17:34:11 40° SE 17:36:49 10° ENE visible
17 Jun ? 19:07:16 10° WNW 19:07:59 11° WNW 19:07:59 11° WNW visible
18 Jun ? 17:46:12 10° SW 17:48:56 60° NW 17:51:38 10° NE visible
19 Jun ? 18:01:28 10° W 18:03:31 19° NW 18:05:32 10° N visible
22 Jun ? 17:12:28 10° WNW 17:13:18 11° NW 17:14:09 10° NW visible
